Year,Month,Day,Hour,Minute,Value (Times are PST for temperature in C)
2016,06,17,00,00,12.30
2016,06,17,00,01,12.30
2016,06,17,00,02,12.20
2016,06,17,00,03,12.20
2016,06,17,00,04,12.20
2016,06,17,00,05,12.20
2016,06,17,00,06,12.20
2016,06,17,00,07,12.10
2016,06,17,00,08,12.10
2016,06,17,00,09,12.10
2016,06,17,00,10,12.10
2016,06,17,00,11,12.10
2016,06,17,00,12,12.00
2016,06,17,00,13,12.00
2016,06,17,00,14,12.00
2016,06,17,00,15,11.90
2016,06,17,00,16,11.90
2016,06,17,00,17,11.90
2016,06,17,00,18,11.90
2016,06,17,00,19,11.90
2016,06,17,00,20,11.80
2016,06,17,00,21,11.80
2016,06,17,00,22,11.80
2016,06,17,00,23,11.80
2016,06,17,00,24,11.80
2016,06,17,00,25,11.70
2016,06,17,00,26,11.70
2016,06,17,00,27,11.70
2016,06,17,00,28,11.70
2016,06,17,00,29,11.70
2016,06,17,00,30,11.70
2016,06,17,00,31,11.60
2016,06,17,00,32,11.60
2016,06,17,00,33,11.60
2016,06,17,00,34,11.60
2016,06,17,00,35,11.60
2016,06,17,00,36,11.50
2016,06,17,00,37,11.50
2016,06,17,00,38,11.50
2016,06,17,00,39,11.50
2016,06,17,00,40,11.40
2016,06,17,00,41,11.40
2016,06,17,00,42,11.40
2016,06,17,00,43,11.40
2016,06,17,00,44,11.40
2016,06,17,00,45,11.40
2016,06,17,00,46,11.40
2016,06,17,00,47,11.40
2016,06,17,00,48,11.40
2016,06,17,00,49,11.40
2016,06,17,00,50,11.40
2016,06,17,00,51,11.40
2016,06,17,00,52,11.30
2016,06,17,00,53,11.30
2016,06,17,00,54,11.30
2016,06,17,00,55,11.30
2016,06,17,00,56,11.30
2016,06,17,00,57,11.30
2016,06,17,00,58,11.30
2016,06,17,00,59,11.30
2016,06,17,01,00,11.30
2016,06,17,01,01,11.20
2016,06,17,01,02,11.20
2016,06,17,01,03,11.20
2016,06,17,01,04,11.20
2016,06,17,01,05,11.10
2016,06,17,01,06,11.10
2016,06,17,01,07,11.10
2016,06,17,01,08,11.10
2016,06,17,01,09,11.10
2016,06,17,01,10,11.10
2016,06,17,01,11,11.10
2016,06,17,01,12,11.20
2016,06,17,01,13,11.20
2016,06,17,01,14,11.20
2016,06,17,01,15,11.30
2016,06,17,01,16,11.30
2016,06,17,01,17,11.30
2016,06,17,01,18,11.30
2016,06,17,01,19,11.30
2016,06,17,01,20,11.30
2016,06,17,01,21,11.30
2016,06,17,01,22,11.20
2016,06,17,01,23,11.20
2016,06,17,01,24,11.20
2016,06,17,01,25,11.20
2016,06,17,01,26,11.10
2016,06,17,01,27,11.10
2016,06,17,01,28,11.00
2016,06,17,01,29,11.00
2016,06,17,01,30,11.00
2016,06,17,01,31,10.90
2016,06,17,01,32,10.90
2016,06,17,01,33,10.90
2016,06,17,01,34,10.80
2016,06,17,01,35,10.80
2016,06,17,01,36,10.70
2016,06,17,01,37,10.70
2016,06,17,01,38,10.70
2016,06,17,01,39,10.70
2016,06,17,01,40,10.70
2016,06,17,01,41,10.70
2016,06,17,01,42,10.70
2016,06,17,01,43,10.60
2016,06,17,01,44,10.60
2016,06,17,01,45,10.60
2016,06,17,01,46,10.60
2016,06,17,01,47,10.60
2016,06,17,01,48,10.70
2016,06,17,01,49,10.70
2016,06,17,01,50,10.80
2016,06,17,01,51,10.80
2016,06,17,01,52,10.90
2016,06,17,01,53,10.90
2016,06,17,01,54,11.00
2016,06,17,01,55,11.00
2016,06,17,01,56,11.10
2016,06,17,01,57,11.10
2016,06,17,01,58,11.10
2016,06,17,01,59,11.00
2016,06,17,02,00,11.00
2016,06,17,02,01,11.00
2016,06,17,02,02,11.00
2016,06,17,02,03,11.00
2016,06,17,02,04,10.90
2016,06,17,02,05,10.90
2016,06,17,02,06,10.90
2016,06,17,02,07,10.90
2016,06,17,02,08,10.90
2016,06,17,02,09,10.90
2016,06,17,02,10,10.90
2016,06,17,02,11,10.90
2016,06,17,02,12,10.90
2016,06,17,02,13,10.90
2016,06,17,02,14,10.90
2016,06,17,02,15,11.00
2016,06,17,02,16,11.00
2016,06,17,02,17,11.00
2016,06,17,02,18,11.00
2016,06,17,02,19,11.00
2016,06,17,02,20,11.00
2016,06,17,02,21,11.00
2016,06,17,02,22,11.00
2016,06,17,02,23,11.00
2016,06,17,02,24,11.00
2016,06,17,02,25,11.00
2016,06,17,02,26,11.00
2016,06,17,02,27,11.00
2016,06,17,02,28,11.00
2016,06,17,02,29,11.00
2016,06,17,02,30,10.90
2016,06,17,02,31,10.90
2016,06,17,02,32,10.90
2016,06,17,02,33,10.90
2016,06,17,02,34,10.90
2016,06,17,02,35,10.90
2016,06,17,02,36,10.90
2016,06,17,02,37,10.90
2016,06,17,02,38,10.90
2016,06,17,02,39,10.90
2016,06,17,02,40,10.90
2016,06,17,02,41,10.90
2016,06,17,02,42,10.90
2016,06,17,02,43,10.90
2016,06,17,02,44,10.80
2016,06,17,02,45,10.80
2016,06,17,02,46,10.80
2016,06,17,02,47,10.80
2016,06,17,02,48,10.70
2016,06,17,02,49,10.70
2016,06,17,02,50,10.70
2016,06,17,02,51,10.70
2016,06,17,02,52,10.70
2016,06,17,02,53,10.70
2016,06,17,02,54,10.70
2016,06,17,02,55,10.70
2016,06,17,02,56,10.70
2016,06,17,02,57,10.60
2016,06,17,02,58,10.60
2016,06,17,02,59,10.60
2016,06,17,03,00,10.60
2016,06,17,03,01,10.60
2016,06,17,03,02,10.60
2016,06,17,03,03,10.60
2016,06,17,03,04,10.60
2016,06,17,03,05,10.70
2016,06,17,03,06,10.60
2016,06,17,03,07,10.60
2016,06,17,03,08,10.60
2016,06,17,03,09,10.60
2016,06,17,03,10,10.60
2016,06,17,03,11,10.60
2016,06,17,03,12,10.60
2016,06,17,03,13,10.50
2016,06,17,03,14,10.50
2016,06,17,03,15,10.50
2016,06,17,03,16,10.40
2016,06,17,03,17,10.40
2016,06,17,03,18,10.40
2016,06,17,03,19,10.30
2016,06,17,03,20,10.30
2016,06,17,03,21,10.30
2016,06,17,03,22,10.20
2016,06,17,03,23,10.20
2016,06,17,03,24,10.20
2016,06,17,03,25,10.10
2016,06,17,03,26,10.10
2016,06,17,03,27,10.10
2016,06,17,03,28,10.10
2016,06,17,03,29,10.10
2016,06,17,03,30,10.00
2016,06,17,03,31,10.00
2016,06,17,03,32,9.90
2016,06,17,03,33,9.90
2016,06,17,03,34,9.90
2016,06,17,03,35,9.90
2016,06,17,03,36,9.90
2016,06,17,03,37,9.90
2016,06,17,03,38,9.90
2016,06,17,03,39,9.90
2016,06,17,03,40,9.90
2016,06,17,03,41,9.90
2016,06,17,03,42,9.90
2016,06,17,03,43,9.90
2016,06,17,03,44,9.80
2016,06,17,03,45,9.80
2016,06,17,03,46,9.80
2016,06,17,03,47,9.80
2016,06,17,03,48,9.80
2016,06,17,03,49,9.80
2016,06,17,03,50,9.80
2016,06,17,03,51,9.80
2016,06,17,03,52,9.80
2016,06,17,03,53,9.80
2016,06,17,03,54,9.80
2016,06,17,03,55,9.80
2016,06,17,03,56,9.80
2016,06,17,03,57,9.80
2016,06,17,03,58,9.80
2016,06,17,03,59,9.80
2016,06,17,04,00,9.80
2016,06,17,04,01,9.80
2016,06,17,04,02,9.80
2016,06,17,04,03,9.80
2016,06,17,04,04,9.80
2016,06,17,04,05,9.80
2016,06,17,04,06,9.80
2016,06,17,04,07,9.80
2016,06,17,04,08,9.80
2016,06,17,04,09,9.80
2016,06,17,04,10,9.80
2016,06,17,04,11,9.80
2016,06,17,04,12,9.80
2016,06,17,04,13,9.70
2016,06,17,04,14,9.70
2016,06,17,04,15,9.70
2016,06,17,04,16,9.70
2016,06,17,04,17,9.70
2016,06,17,04,18,9.70
2016,06,17,04,19,9.70
2016,06,17,04,20,9.70
2016,06,17,04,21,9.70
2016,06,17,04,22,9.60
2016,06,17,04,23,9.70
2016,06,17,04,24,9.60
2016,06,17,04,25,9.60
2016,06,17,04,26,9.60
2016,06,17,04,27,9.60
2016,06,17,04,28,9.60
2016,06,17,04,29,9.60
2016,06,17,04,30,9.60
2016,06,17,04,31,9.60
2016,06,17,04,32,9.60
2016,06,17,04,33,9.60
2016,06,17,04,34,9.60
2016,06,17,04,35,9.60
2016,06,17,04,36,9.60
2016,06,17,04,37,9.60
2016,06,17,04,38,9.60
2016,06,17,04,39,9.60
2016,06,17,04,40,9.60
2016,06,17,04,41,9.60
2016,06,17,04,42,9.60
2016,06,17,04,43,9.50
2016,06,17,04,44,9.50
2016,06,17,04,45,9.50
2016,06,17,04,46,9.50
2016,06,17,04,47,9.50
2016,06,17,04,48,9.50
2016,06,17,04,49,9.40
2016,06,17,04,50,9.40
2016,06,17,04,51,9.40
2016,06,17,04,52,9.40
2016,06,17,04,53,9.40
2016,06,17,04,54,9.40
2016,06,17,04,55,9.40
2016,06,17,04,56,9.40
2016,06,17,04,57,9.30
2016,06,17,04,58,9.30
2016,06,17,04,59,9.30
2016,06,17,05,00,9.30
2016,06,17,05,01,9.30
2016,06,17,05,02,9.30
2016,06,17,05,03,9.30
2016,06,17,05,04,9.30
2016,06,17,05,05,9.20
2016,06,17,05,06,9.20
2016,06,17,05,07,9.20
2016,06,17,05,08,9.20
2016,06,17,05,09,9.20
2016,06,17,05,10,9.20
2016,06,17,05,11,9.20
2016,06,17,05,12,9.20
2016,06,17,05,13,9.20
2016,06,17,05,14,9.20
2016,06,17,05,15,9.20
2016,06,17,05,16,9.20
2016,06,17,05,17,9.10
2016,06,17,05,18,9.10
2016,06,17,05,19,9.10
2016,06,17,05,20,9.10
2016,06,17,05,21,9.10
2016,06,17,05,22,9.10
2016,06,17,05,23,9.10
2016,06,17,05,24,9.10
2016,06,17,05,25,9.10
2016,06,17,05,26,9.10
2016,06,17,05,27,9.00
2016,06,17,05,28,9.00
2016,06,17,05,29,9.00
2016,06,17,05,30,9.00
2016,06,17,05,31,9.00
2016,06,17,05,32,9.00
2016,06,17,05,33,9.00
2016,06,17,05,34,9.10
2016,06,17,05,35,9.10
2016,06,17,05,36,9.10
2016,06,17,05,37,9.10
2016,06,17,05,38,9.10
2016,06,17,05,39,9.10
2016,06,17,05,40,9.10
2016,06,17,05,41,9.10
2016,06,17,05,42,9.10
2016,06,17,05,43,9.10
2016,06,17,05,44,9.10
2016,06,17,05,45,9.10
2016,06,17,05,46,9.10
2016,06,17,05,47,9.10
2016,06,17,05,48,9.10
2016,06,17,05,49,9.10
2016,06,17,05,50,9.10
2016,06,17,05,51,9.10
2016,06,17,05,52,9.20
2016,06,17,05,53,9.20
2016,06,17,05,54,9.20
2016,06,17,05,55,9.20
2016,06,17,05,56,9.20
2016,06,17,05,57,9.30
2016,06,17,05,58,9.30
2016,06,17,05,59,9.30
2016,06,17,06,00,9.30
2016,06,17,06,01,9.30
2016,06,17,06,02,9.30
2016,06,17,06,03,9.30
2016,06,17,06,04,9.30
2016,06,17,06,05,9.30
2016,06,17,06,06,9.30
2016,06,17,06,07,9.30
2016,06,17,06,08,9.30
2016,06,17,06,09,9.30
2016,06,17,06,10,9.40
2016,06,17,06,11,9.40
2016,06,17,06,12,9.40
2016,06,17,06,13,9.40
2016,06,17,06,14,9.40
2016,06,17,06,15,9.40
2016,06,17,06,16,9.40
2016,06,17,06,17,9.50
2016,06,17,06,18,9.50
2016,06,17,06,19,9.50
2016,06,17,06,20,9.60
2016,06,17,06,21,9.60
2016,06,17,06,22,9.60
2016,06,17,06,23,9.60
2016,06,17,06,24,9.70
2016,06,17,06,25,9.70
2016,06,17,06,26,9.70
2016,06,17,06,27,9.80
2016,06,17,06,28,9.80
2016,06,17,06,29,9.90
2016,06,17,06,30,9.90
2016,06,17,06,31,10.00
2016,06,17,06,32,10.00
2016,06,17,06,33,10.00
2016,06,17,06,34,10.10
2016,06,17,06,35,10.20
2016,06,17,06,36,10.20
2016,06,17,06,37,10.30
2016,06,17,06,38,10.30
2016,06,17,06,39,10.30
2016,06,17,06,40,10.40
2016,06,17,06,41,10.40
2016,06,17,06,42,10.50
2016,06,17,06,43,10.50
2016,06,17,06,44,10.60
2016,06,17,06,45,10.80
2016,06,17,06,46,10.90
2016,06,17,06,47,11.00
2016,06,17,06,48,11.10
2016,06,17,06,49,11.20
2016,06,17,06,50,11.30
2016,06,17,06,51,11.40
2016,06,17,06,52,11.40
2016,06,17,06,53,11.50
2016,06,17,06,54,11.60
2016,06,17,06,55,11.70
2016,06,17,06,56,11.80
2016,06,17,06,57,11.80
2016,06,17,06,58,11.90
2016,06,17,06,59,12.00
2016,06,17,07,00,12.10
2016,06,17,07,01,12.20
2016,06,17,07,02,12.30
2016,06,17,07,03,12.30
2016,06,17,07,04,12.40
2016,06,17,07,05,12.50
2016,06,17,07,06,12.50
2016,06,17,07,07,12.60
2016,06,17,07,08,12.60
2016,06,17,07,09,12.70
2016,06,17,07,10,12.70
2016,06,17,07,11,12.70
2016,06,17,07,12,12.80
2016,06,17,07,13,12.80
2016,06,17,07,14,12.80
2016,06,17,07,15,12.80
2016,06,17,07,16,12.80
2016,06,17,07,17,12.90
2016,06,17,07,18,12.90
2016,06,17,07,19,13.00
2016,06,17,07,20,13.00
2016,06,17,07,21,13.00
2016,06,17,07,22,12.90
2016,06,17,07,23,12.90
2016,06,17,07,24,12.90
2016,06,17,07,25,13.00
2016,06,17,07,26,13.00
2016,06,17,07,27,13.00
2016,06,17,07,28,13.10
2016,06,17,07,29,13.00
2016,06,17,07,30,13.00
2016,06,17,07,31,13.00
2016,06,17,07,32,12.90
2016,06,17,07,33,12.90
2016,06,17,07,34,12.80
2016,06,17,07,35,12.80
2016,06,17,07,36,12.80
2016,06,17,07,37,12.80
2016,06,17,07,38,12.90
2016,06,17,07,39,12.90
2016,06,17,07,40,12.90
2016,06,17,07,41,12.90
2016,06,17,07,42,12.90
2016,06,17,07,43,12.90
2016,06,17,07,44,12.90
2016,06,17,07,45,13.00
2016,06,17,07,46,13.00
2016,06,17,07,47,13.00
2016,06,17,07,48,13.00
2016,06,17,07,49,13.00
2016,06,17,07,50,13.00
2016,06,17,07,51,13.10
2016,06,17,07,52,13.10
2016,06,17,07,53,13.20
2016,06,17,07,54,13.20
2016,06,17,07,55,13.30
2016,06,17,07,56,13.30
2016,06,17,07,57,13.30
2016,06,17,07,58,13.30
2016,06,17,07,59,13.30
2016,06,17,08,00,13.30
2016,06,17,08,01,13.30
2016,06,17,08,02,13.30
2016,06,17,08,03,13.30
2016,06,17,08,04,13.30
2016,06,17,08,05,13.30
2016,06,17,08,06,13.30
2016,06,17,08,07,13.30
2016,06,17,08,08,13.30
2016,06,17,08,09,13.30
2016,06,17,08,10,13.40
2016,06,17,08,11,13.40
2016,06,17,08,12,13.50
2016,06,17,08,13,13.50
2016,06,17,08,14,13.60
2016,06,17,08,15,13.60
2016,06,17,08,16,13.70
2016,06,17,08,17,13.70
2016,06,17,08,18,13.70
2016,06,17,08,19,13.70
2016,06,17,08,20,13.80
2016,06,17,08,21,13.80
2016,06,17,08,22,13.70
2016,06,17,08,23,13.70
2016,06,17,08,24,13.70
2016,06,17,08,25,13.70
2016,06,17,08,26,13.70
2016,06,17,08,27,13.70
2016,06,17,08,28,13.70
2016,06,17,08,29,13.60
2016,06,17,08,30,13.60
2016,06,17,08,31,13.60
2016,06,17,08,32,13.70
2016,06,17,08,33,13.70
2016,06,17,08,34,13.70
2016,06,17,08,35,13.70
2016,06,17,08,36,13.70
2016,06,17,08,37,13.70
2016,06,17,08,38,13.70
2016,06,17,08,39,13.70
2016,06,17,08,40,13.70
2016,06,17,08,41,13.70
2016,06,17,08,42,13.70
2016,06,17,08,43,13.70
2016,06,17,08,44,13.70
2016,06,17,08,45,13.80
2016,06,17,08,46,13.80
2016,06,17,08,47,13.80
2016,06,17,08,48,13.80
2016,06,17,08,49,13.80
2016,06,17,08,50,13.80
2016,06,17,08,51,13.80
2016,06,17,08,52,13.80
2016,06,17,08,53,13.80
2016,06,17,08,54,13.80
2016,06,17,08,55,13.80
2016,06,17,08,56,13.80
2016,06,17,08,57,13.80
2016,06,17,08,58,13.80
2016,06,17,08,59,13.80
2016,06,17,09,00,13.80
2016,06,17,09,01,13.80
2016,06,17,09,02,13.80
2016,06,17,09,03,13.80
2016,06,17,09,04,13.80
2016,06,17,09,05,13.80
2016,06,17,09,06,13.90
2016,06,17,09,07,13.90
2016,06,17,09,08,13.90
2016,06,17,09,09,14.00
2016,06,17,09,10,14.10
2016,06,17,09,11,14.20
2016,06,17,09,12,14.20
2016,06,17,09,13,14.30
2016,06,17,09,14,14.30
2016,06,17,09,15,14.30
2016,06,17,09,16,14.20
2016,06,17,09,17,14.20
2016,06,17,09,18,14.20
2016,06,17,09,19,14.20
2016,06,17,09,20,14.20
2016,06,17,09,21,14.20
2016,06,17,09,22,14.20
2016,06,17,09,23,14.20
2016,06,17,09,24,14.20
2016,06,17,09,25,14.20
2016,06,17,09,26,14.20
2016,06,17,09,27,14.20
2016,06,17,09,28,14.30
2016,06,17,09,29,14.40
2016,06,17,09,30,14.40
2016,06,17,09,31,14.50
2016,06,17,09,32,14.60
2016,06,17,09,33,14.60
2016,06,17,09,34,14.60
2016,06,17,09,35,14.60
2016,06,17,09,36,14.60
2016,06,17,09,37,14.60
2016,06,17,09,38,14.60
2016,06,17,09,39,14.60
2016,06,17,09,40,14.60
2016,06,17,09,41,14.60
2016,06,17,09,42,14.60
2016,06,17,13,56,17.80
2016,06,17,13,57,17.80
2016,06,17,13,58,17.90
2016,06,17,13,59,18.00
2016,06,17,14,00,18.10
2016,06,17,14,01,18.20
2016,06,17,14,02,18.20
2016,06,17,14,03,18.30
2016,06,17,14,04,18.40
2016,06,17,14,05,18.50
2016,06,17,14,06,18.50
2016,06,17,14,07,18.40
2016,06,17,14,08,18.40
2016,06,17,14,09,18.30
2016,06,17,14,10,18.30
2016,06,17,14,11,18.30
2016,06,17,14,12,18.30
2016,06,17,14,13,18.30
2016,06,17,14,14,18.40
2016,06,17,14,15,18.40
2016,06,17,14,16,18.40
2016,06,17,14,17,18.30
2016,06,17,14,18,18.30
2016,06,17,14,19,18.20
2016,06,17,14,20,18.20
2016,06,17,14,21,18.20
2016,06,17,14,22,18.20
2016,06,17,14,23,18.20
2016,06,17,14,24,18.30
2016,06,17,14,25,18.30
2016,06,17,14,26,18.30
2016,06,17,14,27,18.30
2016,06,17,14,28,18.30
2016,06,17,14,29,18.30
2016,06,17,14,30,18.40
2016,06,17,14,31,18.40
2016,06,17,14,32,18.40
2016,06,17,14,33,18.40
2016,06,17,14,34,18.50
2016,06,17,14,35,18.60
2016,06,17,14,36,18.70
2016,06,17,14,37,18.70
2016,06,17,14,38,18.70
2016,06,17,14,39,18.80
2016,06,17,14,40,18.90
2016,06,17,14,41,19.00
2016,06,17,14,42,19.10
2016,06,17,14,43,19.10
2016,06,17,14,44,19.10
2016,06,17,14,45,19.00
2016,06,17,14,46,19.00
2016,06,17,14,47,19.00
2016,06,17,14,48,18.90
2016,06,17,14,49,18.80
2016,06,17,14,50,18.80
2016,06,17,14,51,18.70
2016,06,17,14,52,18.60
2016,06,17,14,53,18.60
2016,06,17,14,54,18.50
2016,06,17,14,55,18.40
2016,06,17,14,56,18.40
2016,06,17,14,57,18.30
2016,06,17,14,58,18.30
2016,06,17,14,59,18.10
2016,06,17,15,00,18.10
2016,06,17,15,01,18.00
2016,06,17,15,02,17.90
2016,06,17,15,03,17.80
2016,06,17,15,04,17.80
2016,06,17,15,05,17.80
2016,06,17,15,06,17.90
2016,06,17,15,07,17.90
2016,06,17,15,08,17.90
2016,06,17,15,09,17.90
2016,06,17,15,10,18.00
2016,06,17,15,11,18.00
2016,06,17,15,12,17.80
2016,06,17,15,13,17.80
2016,06,17,15,14,17.80
2016,06,17,15,15,17.80
2016,06,17,15,16,17.80
2016,06,17,15,17,17.80
2016,06,17,15,18,17.70
2016,06,17,15,19,17.70
2016,06,17,15,20,17.70
2016,06,17,15,21,17.70
2016,06,17,15,22,17.80
2016,06,17,15,23,17.80
2016,06,17,15,24,17.80
2016,06,17,15,25,17.90
2016,06,17,15,26,17.90
2016,06,17,15,27,17.90
2016,06,17,15,28,18.00
2016,06,17,15,29,18.10
2016,06,17,15,30,18.00
2016,06,17,15,31,18.00
2016,06,17,15,32,18.00
2016,06,17,15,33,18.00
2016,06,17,15,34,18.10
2016,06,17,15,35,18.10
2016,06,17,15,36,18.10
2016,06,17,15,37,18.10
2016,06,17,15,38,18.10
2016,06,17,15,39,18.10
2016,06,17,15,40,18.20
2016,06,17,15,41,18.30
2016,06,17,15,42,18.40
2016,06,17,15,43,18.40
2016,06,17,15,44,18.40
2016,06,17,15,45,18.50
2016,06,17,15,46,18.50
2016,06,17,15,47,18.60
2016,06,17,15,48,18.80
2016,06,17,15,49,18.90
2016,06,17,15,50,18.90
2016,06,17,15,51,19.00
2016,06,17,15,52,19.10
2016,06,17,15,53,19.10
2016,06,17,15,54,19.10
2016,06,17,15,55,19.10
2016,06,17,15,56,19.10
2016,06,17,15,57,19.10
2016,06,17,15,58,19.10
2016,06,17,15,59,19.20
2016,06,17,16,00,19.20
2016,06,17,16,01,19.20
2016,06,17,16,02,19.20
2016,06,17,16,03,19.20
2016,06,17,16,04,19.20
2016,06,17,16,05,19.20
2016,06,17,16,06,19.10
2016,06,17,16,07,19.10
2016,06,17,16,08,19.10
2016,06,17,16,09,19.10
2016,06,17,16,10,19.00
2016,06,17,16,11,19.00
2016,06,17,16,12,19.00
2016,06,17,16,13,19.00
2016,06,17,16,14,19.00
2016,06,17,16,15,18.90
2016,06,17,16,16,18.90
2016,06,17,16,17,18.80
2016,06,17,16,18,18.70
2016,06,17,16,19,18.70
2016,06,17,16,20,18.70
2016,06,17,16,21,18.70
2016,06,17,16,22,18.60
2016,06,17,16,23,18.60
2016,06,17,16,24,18.60
2016,06,17,16,25,18.50
2016,06,17,16,26,18.40
2016,06,17,16,27,18.40
2016,06,17,16,28,18.40
2016,06,17,16,29,18.30
2016,06,17,16,30,18.30
2016,06,17,16,31,18.40
2016,06,17,16,32,18.40
2016,06,17,16,33,18.40
2016,06,17,16,34,18.40
2016,06,17,16,35,18.40
2016,06,17,16,36,18.40
2016,06,17,16,37,18.30
2016,06,17,16,38,18.30
2016,06,17,16,39,18.30
2016,06,17,16,40,18.30
2016,06,17,16,41,18.30
2016,06,17,16,42,18.30
2016,06,17,16,43,18.30
2016,06,17,16,44,18.30
2016,06,17,16,45,18.30
2016,06,17,16,46,18.30
2016,06,17,16,47,18.30
2016,06,17,16,48,18.30
2016,06,17,16,49,18.30
2016,06,17,16,50,18.30
2016,06,17,16,51,18.30
2016,06,17,16,52,18.30
2016,06,17,16,53,18.30
2016,06,17,16,54,18.40
2016,06,17,16,55,18.40
2016,06,17,16,56,18.40
2016,06,17,16,57,18.40
2016,06,17,16,58,18.40
2016,06,17,16,59,18.40
2016,06,17,17,00,18.40
2016,06,17,17,01,18.30
2016,06,17,17,02,18.30
2016,06,17,17,03,18.30
2016,06,17,17,04,18.30
2016,06,17,17,05,18.20
2016,06,17,17,06,18.20
2016,06,17,17,07,18.20
2016,06,17,17,08,18.10
2016,06,17,17,09,18.10
2016,06,17,17,10,18.10
2016,06,17,17,11,18.10
2016,06,17,17,12,18.10
2016,06,17,17,13,18.10
2016,06,17,17,14,18.10
2016,06,17,17,15,18.20
2016,06,17,17,16,18.20
2016,06,17,17,17,18.20
2016,06,17,17,18,18.30
2016,06,17,17,19,18.30
2016,06,17,17,20,18.30
2016,06,17,17,21,18.30
2016,06,17,17,22,18.40
2016,06,17,17,23,18.40
2016,06,17,17,24,18.40
2016,06,17,17,25,18.40
2016,06,17,17,26,18.40
2016,06,17,17,27,18.40
2016,06,17,17,28,18.40
2016,06,17,17,29,18.40
2016,06,17,17,30,18.40
2016,06,17,17,31,18.40
2016,06,17,17,32,18.40
2016,06,17,17,33,18.40
2016,06,17,17,34,18.40
2016,06,17,18,54,15.90
2016,06,17,18,55,15.90
2016,06,17,18,56,15.90
2016,06,17,18,57,15.80
2016,06,17,18,58,15.80
2016,06,17,18,59,15.80
2016,06,17,19,00,15.80
2016,06,17,19,01,15.80
2016,06,17,19,02,15.80
2016,06,17,19,03,15.80
2016,06,17,19,04,15.80
2016,06,17,19,05,15.80
2016,06,17,19,06,15.80
2016,06,17,19,07,15.80
2016,06,17,19,08,15.90
2016,06,17,19,09,15.90
2016,06,17,19,10,15.90
2016,06,17,19,11,15.90
2016,06,17,19,12,16.00
2016,06,17,19,13,16.00
2016,06,17,19,14,16.00
2016,06,17,19,15,16.10
2016,06,17,19,16,16.10
2016,06,17,19,17,16.20
2016,06,17,19,18,16.20
2016,06,17,19,19,16.20
2016,06,17,19,20,16.20
2016,06,17,19,21,16.20
2016,06,17,19,22,16.20
2016,06,17,19,23,16.20
2016,06,17,19,24,16.20
2016,06,17,19,25,16.30
2016,06,17,19,26,16.30
2016,06,17,19,27,16.30
2016,06,17,19,28,16.30
2016,06,17,19,29,16.30
2016,06,17,19,30,16.30
2016,06,17,19,31,16.30
2016,06,17,19,32,16.30
2016,06,17,19,33,16.30
2016,06,17,19,34,16.30
2016,06,17,19,35,16.20
2016,06,17,19,36,16.20
2016,06,17,19,37,16.20
2016,06,17,19,38,16.20
2016,06,17,19,39,16.10
2016,06,17,19,40,16.10
2016,06,17,19,41,16.10
2016,06,17,19,42,16.10
2016,06,17,19,43,16.10
2016,06,17,19,44,16.10
2016,06,17,19,45,16.10
2016,06,17,19,46,16.10
2016,06,17,19,47,16.10
2016,06,17,19,48,16.10
2016,06,17,19,49,16.10
2016,06,17,19,50,16.10
2016,06,17,19,51,16.10
2016,06,17,19,52,16.10
2016,06,17,19,53,16.10
2016,06,17,19,54,16.00
2016,06,17,19,55,16.00
2016,06,17,19,56,16.00
2016,06,17,19,57,16.00
2016,06,17,19,58,16.00
2016,06,17,19,59,16.00
2016,06,17,20,00,16.00
2016,06,17,20,01,16.00
2016,06,17,20,02,16.00
2016,06,17,20,03,16.00
2016,06,17,20,04,16.00
2016,06,17,20,05,16.00
2016,06,17,20,06,16.00
2016,06,17,20,07,16.00
2016,06,17,20,08,16.00
2016,06,17,20,09,16.00
2016,06,17,20,10,16.00
2016,06,17,20,11,16.00
2016,06,17,20,12,16.00
2016,06,17,20,13,16.00
2016,06,17,20,14,15.90
2016,06,17,20,15,15.90
2016,06,17,20,16,15.90
2016,06,17,20,17,15.80
2016,06,17,20,18,15.80
2016,06,17,20,19,15.80
2016,06,17,20,20,15.80
2016,06,17,20,21,15.70
2016,06,17,20,22,15.70
2016,06,17,20,23,15.60
2016,06,17,20,24,15.60
2016,06,17,20,25,15.60
2016,06,17,20,26,15.50
2016,06,17,20,27,15.40
2016,06,17,20,28,15.40
2016,06,17,20,29,15.30
2016,06,17,20,30,15.30
2016,06,17,20,31,15.20
2016,06,17,20,32,15.20
2016,06,17,20,33,15.10
2016,06,17,20,34,15.10
2016,06,17,20,35,15.10
2016,06,17,20,36,15.00
2016,06,17,20,37,15.00
2016,06,17,20,38,14.90
2016,06,17,20,39,14.90
2016,06,17,20,40,14.80
2016,06,17,20,41,14.80
2016,06,17,20,42,14.80
2016,06,17,20,43,14.70
2016,06,17,20,44,14.70
2016,06,17,20,45,14.70
2016,06,17,20,46,14.70
2016,06,17,20,47,14.60
2016,06,17,20,48,14.60
2016,06,17,20,49,14.60
2016,06,17,20,50,14.60
2016,06,17,20,51,14.60
2016,06,17,20,52,14.60
2016,06,17,20,53,14.50
2016,06,17,20,54,14.50
2016,06,17,20,55,14.50
2016,06,17,20,56,14.50
2016,06,17,20,57,14.40
2016,06,17,20,58,14.40
2016,06,17,20,59,14.40
2016,06,17,21,00,14.40
2016,06,17,21,01,14.40
2016,06,17,21,02,14.40
2016,06,17,21,03,14.30
2016,06,17,21,04,14.30
2016,06,17,21,05,14.30
2016,06,17,21,06,14.30
2016,06,17,21,07,14.30
2016,06,17,21,08,14.40
2016,06,17,21,09,14.40
2016,06,17,21,10,14.40
2016,06,17,21,11,14.40
2016,06,17,21,12,14.40
2016,06,17,21,13,14.40
2016,06,17,21,14,14.40
2016,06,17,21,15,14.40
2016,06,17,21,16,14.40
2016,06,17,21,17,14.40
2016,06,17,21,18,14.40
2016,06,17,21,19,14.40
2016,06,17,21,20,14.40
2016,06,17,21,21,14.40
2016,06,17,21,22,14.40
2016,06,17,21,23,14.40
2016,06,17,21,24,14.40
2016,06,17,21,25,14.40
2016,06,17,21,26,14.40
2016,06,17,21,27,14.30
2016,06,17,21,28,14.30
2016,06,17,21,29,14.30
2016,06,17,21,30,14.30
2016,06,17,21,31,14.30
2016,06,17,21,32,14.30
2016,06,17,21,33,14.30
2016,06,17,21,34,14.30
2016,06,17,21,35,14.20
2016,06,17,21,36,14.20
2016,06,17,21,37,14.20
2016,06,17,21,38,14.20
2016,06,17,21,39,14.10
2016,06,17,21,40,14.10
2016,06,17,21,41,14.10
2016,06,17,21,42,14.10
2016,06,17,21,43,14.10
2016,06,17,21,44,14.00
2016,06,17,21,45,14.00
2016,06,17,21,46,14.00
2016,06,17,21,47,14.00
2016,06,17,21,48,14.00
2016,06,17,21,49,13.90
2016,06,17,21,50,13.90
2016,06,17,21,51,13.90
2016,06,17,21,52,13.90
2016,06,17,21,53,13.90
2016,06,17,21,54,13.90
2016,06,17,21,55,13.90
2016,06,17,21,56,13.90
2016,06,17,21,57,13.90
2016,06,17,21,58,13.90
2016,06,17,21,59,13.90
2016,06,17,22,00,13.90
2016,06,17,22,01,13.80
2016,06,17,22,02,13.80
2016,06,17,22,03,13.80
2016,06,17,22,04,13.80
2016,06,17,22,05,13.80
2016,06,17,22,06,13.80
2016,06,17,22,07,13.80
2016,06,17,22,08,13.80
2016,06,17,22,09,13.80
2016,06,17,22,10,13.80
2016,06,17,22,11,13.80
2016,06,17,22,12,13.80
2016,06,17,22,13,13.90
2016,06,17,22,14,13.80
2016,06,17,22,15,13.80
2016,06,17,22,16,13.80
2016,06,17,22,17,13.80
2016,06,17,22,18,13.80
2016,06,17,22,19,13.80
2016,06,17,22,20,13.80
2016,06,17,22,21,13.80
2016,06,17,22,22,13.80
2016,06,17,22,23,13.70
2016,06,17,22,24,13.70
2016,06,17,22,25,13.70
2016,06,17,22,26,13.70
2016,06,17,22,27,13.70
2016,06,17,22,28,13.70
2016,06,17,22,29,13.70
2016,06,17,22,30,13.70
2016,06,17,22,31,13.70
2016,06,17,22,32,13.70
2016,06,17,22,33,13.70
2016,06,17,22,34,13.70
2016,06,17,22,35,13.80
2016,06,17,22,36,13.80
2016,06,17,22,37,13.80
2016,06,17,22,38,13.70
2016,06,17,22,39,13.70
2016,06,17,22,40,13.70
2016,06,17,22,41,13.70
2016,06,17,22,42,13.70
2016,06,17,22,43,13.70
2016,06,17,22,44,13.70
2016,06,17,22,45,13.70
2016,06,17,22,46,13.70
2016,06,17,22,47,13.70
2016,06,17,22,48,13.70
2016,06,17,22,49,13.70
2016,06,17,22,50,13.70
2016,06,17,22,51,13.70
2016,06,17,22,52,13.70
2016,06,17,22,53,13.70
2016,06,17,22,54,13.70
2016,06,17,22,55,13.80
2016,06,17,22,56,13.80
2016,06,17,22,57,13.80
2016,06,17,22,58,13.80
2016,06,17,22,59,13.80